FW1460 Weather Reports


time (UTC)temp
C
wind
direction
speed
KPH
gust
KPH
rain 1hr
cm
rain 24hr
cm
rain mn
cm
humidity
%
barometer
mb
20260507110028 8 315 0.0 9.7 0.05 0.84 0.46 90 1007.7
20260507104524 8 306 0.0 6.4 0.05 0.81 0.43 90 1007.0
20260507103022 8 23 0.0 14.5 0.05 0.81 0.43 90 1006.8
20260507101621 9 348 0.0 6.4 0.05 0.79 0.41 90 1007.1
20260507100025 9 355 0.0 4.8 0.08 0.79 0.41 90 1007.2
20260507094516 9 11 0.0 8.0 0.08 0.76 0.38 90 1007.0
20260507093032 9 355 1.6 9.7 0.05 0.71 0.36 90 1006.8
20260507091514 9 5 0.0 4.8 0.08 0.71 0.36 90 1006.3
20260507090014 10 19 1.6 6.4 0.10 0.71 0.33 90 1006.7
20260507084509 10 9 0.0 1.6 0.20 0.69 0.30 91 1006.7
20260507083015 10 9 0.0 12.9 0.28 0.69 0.30 91 1006.2
20260507081505 10 350 1.6 12.9 0.25 0.66 0.28 91 1006.3
20260507080001 11 309 1.6 16.1 0.20 0.61 0.23 91 1006.4
20260507074605 11 193 0.0 3.2 0.08 0.48 0.10 91 1005.9
20260507073111 11 193 0.0 3.2 0.00 0.41 0.03 91 1005.6
20260507071611 11 193 0.0 0.0 0.00 0.41 0.03 91 1005.2
20260507070057 11 193 0.0 0.0 0.03 0.41 0.03 91 1005.1
20260507064558 11 193 0.0 1.6 0.03 0.41 0.03 91 1005.4
20260507063058 11 193 0.0 1.6 0.03 0.41 0.03 91 1005.5
20260507061554 11 193 0.0 1.6 0.03 0.41 0.03 91 1005.5
20260507060051 11 193 0.0 4.8 0.00 0.38 0.00 91 1005.7
20260507054602 11 194 0.0 4.8 0.00 0.38 0.00 91 1005.6
20260507053049 11 193 0.0 3.2 0.00 0.38 0.00 91 1006.2
20260507051548 11 189 1.6 6.4 0.00 0.38 0.00 91 1006.3
20260507050046 11 213 1.6 6.4 0.00 0.38 0.00 91 1006.4
20260507044546 12 200 0.0 4.8 0.00 0.38 0.00 91 1006.4
20260507043045 12 173 3.2 8.0 0.00 0.38 0.00 91 1006.3
20260507041544 12 184 1.6 8.0 0.00 0.38 0.00 91 1006.3
20260507040053 12 168 1.6 4.8 0.00 0.38 0.00 90 1006.4
20260507034549 12 155 0.0 8.0 0.00 0.38 0.38 90 1006.3
20260507033043 12 176 1.6 11.3 0.00 0.38 0.38 90 1006.6
20260507031540 12 207 3.2 9.7 0.00 0.38 0.38 90 1006.7
20260507030039 12 184 4.8 14.5 0.00 0.38 0.38 90 1006.6
20260507024538 12 188 4.8 16.1 0.00 0.38 0.38 90 1006.5
20260507023036 12 185 3.2 12.9 0.00 0.38 0.38 90 1006.3
20260507021535 12 196 3.2 9.7 0.00 0.38 0.38 90 1006.3
20260507020034 12 208 3.2 12.9 0.00 0.38 0.38 90 1006.6
20260507014531 12 159 3.2 16.1 0.00 0.38 0.38 90 1006.8
20260507013036 12 155 4.8 17.7 0.00 0.38 0.38 90 1006.9
20260507011537 12 146 3.2 17.7 0.00 0.38 0.38 90 1007.0
20260507010029 12 207 6.4 12.9 0.00 0.38 0.38 90 1007.2
20260507004526 12 184 6.4 14.5 0.03 0.38 0.38 90 1007.2
20260507003026 12 165 3.2 14.5 0.03 0.38 0.38 90 1007.2
20260507001524 12 151 6.4 16.1 0.03 0.38 0.38 90 1007.0
20260507000023 12 179 3.2 16.1 0.03 0.38 0.38 90 1007.1
20260506234525 12 188 4.8 14.5 0.03 0.36 0.36 90 1007.1
20260506233020 12 218 8.0 16.1 0.08 0.36 0.36 90 1007.1
20260506231518 12 178 4.8 12.9 0.15 0.36 0.36 90 1007.1
20260506230017 12 190 4.8 12.9 0.25 0.36 0.36 90 1007.0
20260506224524 12 202 4.8 29.0 0.25 0.33 0.33 89 1006.9
20260506223012 12 173 6.4 16.1 0.23 0.28 0.28 89 1006.9
20260506221510 12 157 4.8 24.1 0.15 0.20 0.20 89 1007.2
20260506220008 12 199 4.8 14.5 0.08 0.10 0.10 88 1007.3
20260506214506 13 229 3.2 19.3 0.05 0.08 0.08 88 1007.5
20260506213004 13 151 4.8 16.1 0.03 0.05 0.05 87 1007.6
20260506211502 13 155 6.4 12.9 0.03 0.05 0.05 87 1007.7
20260506210001 13 166 6.4 12.9 0.00 0.03 0.03 86 1007.9
20260506204600 13 192 4.8 14.5 0.00 0.03 0.03 85 1007.9
20260506203143 13 171 6.4 16.1 0.03 0.03 0.03 84 1007.9
20260506201559 14 198 6.4 14.5 0.03 0.03 0.03 84 1007.9
20260506200056 13 187 4.8 16.1 0.03 0.03 0.03 85 1008.3
20260506194555 13 154 4.8 24.1 0.00 0.00 0.00 84 1008.5
20260506193053 14 210 4.8 22.5 0.00 0.00 0.00 82 1008.6
20260506191554 15 225 6.4 24.1 0.00 0.00 0.00 79 1008.5
20260506190055 15 193 8.0 25.7 0.00 0.00 0.00 78 1008.7
20260506184558 15 221 9.7 25.7 0.00 0.00 0.00 78 1008.6
20260506183049 16 225 9.7 24.1 0.00 0.00 0.00 78 1008.8
20260506181548 16 200 8.0 22.5 0.00 0.00 0.00 78 1009.1
20260506180046 16 162 9.7 30.6 0.00 0.00 0.00 78 1009.2
20260506174546 16 159 8.0 24.1 0.00 0.00 0.00 76 1009.4
20260506173052 16 209 9.7 32.2 0.00 0.00 0.00 76 1009.9
20260506171542 17 192 9.7 22.5 0.00 0.00 0.00 75 1009.8
20260506170040 17 173 11.3 27.4 0.00 0.00 0.00 75 1009.8
20260506164545 16 213 11.3 30.6 0.00 0.00 0.00 77 1010.1
20260506163054 16 247 11.3 32.2 0.00 0.00 0.00 78 1010.3
20260506161537 16 205 12.9 24.1 0.00 0.00 0.00 76 1010.4
20260506160036 17 192 8.0 25.7 0.00 0.00 0.00 75 1010.5
20260506154537 17 173 9.7 35.4 0.00 0.00 0.00 75 1010.7
20260506153033 17 180 8.0 27.4 0.00 0.00 0.00 74 1010.9
20260506151538 17 205 12.9 30.6 0.00 0.00 0.00 76 1011.0
20260506150028 17 194 11.3 35.4 0.00 0.00 0.00 76 1011.1
20260506144528 16 179 11.3 25.7 0.00 0.00 0.00 76 1010.8
20260506143028 16 192 8.0 33.8 0.00 0.00 0.00 77 1010.9
20260506141527 16 198 8.0 25.7 0.00 0.00 0.00 77 1010.9
20260506140029 16 156 6.4 20.9 0.00 0.00 0.00 76 1010.7
20260506134523 16 194 9.7 30.6 0.00 0.00 0.00 76 1011.0
20260506133022 16 200 12.9 30.6 0.00 0.00 0.00 77 1011.3
20260506131521 16 202 11.3 35.4 0.00 0.00 0.00 78 1011.2
20260506130018 15 211 8.0 29.0 0.00 0.00 0.00 79 1011.0
20260506124517 15 220 8.0 29.0 0.00 0.00 0.00 79 1010.9
20260506123016 15 229 8.0 17.7 0.00 0.00 0.00 80 1011.0
20260506121512 14 196 6.4 20.9 0.00 0.00 0.00 82 1011.2
20260506120012 13 159 11.3 25.7 0.00 0.00 0.00 83 1011.3
20260506114508 13 215 6.4 22.5 0.00 0.00 0.00 83 1011.4
20260506113006 13 189 8.0 22.5 0.00 0.00 0.00 84 1011.6
20260506111504 13 177 6.4 19.3 0.00 0.00 0.00 85 1011.8